Regional Weather Roundup
Issued by NWS Green Bay, WI

Home | Current Version | Previous Version | Text Only | Print | Product List | Glossary On
Versions: 1 2 3 4 5 6 7 8 9 10 11 12 13 14 15 16 17 18 19 20 21 22 23 24 25 26 27 28 29 30 31 32 33 34 35 36 37 38 39 40 41 42 43 44 45 46 47 48 49 50
000
ASUS43 KGRB 030511
RWRGRB

NORTH-CENTRAL AND NORTHEAST WISCONSIN REGIONAL WEATHER ROUNDUP
NATIONAL WEATHER SERVICE GREEN BAY WI
1200 AM CDT FRI JUL 03 2015

WIZ005-009-010>012-018-019-030600-
NORTH CENTRAL WISCONSIN

CITY           SKY/WX    TMP DP  RH WIND       PRES   REMARKS
IRONWOOD       CLEAR     63  54  72 SW8       29.93S
MANITOWISH WTR CLEAR     58  55  91 W3        29.99R
ARBOR VITAE    CLEAR     59  55  85 SW5       29.99F
EAGLE RIVER    CLEAR     61  50  67 SW3       29.99F
LAND O LAKES   CLEAR     57  53  84 CALM      29.99F
RHINELANDER    CLEAR     60  51  72 SW9       30.01S
PHILLIPS       CLEAR     59  55  84 SW3       29.99F
ANTIGO         CLEAR     53  49  87 S5        30.02S
TOMAHAWK       CLEAR     53  51  93 CALM      30.01S
MERRILL        CLEAR     52  51  97 CALM      30.02S
$$

WIZ013-073-030600-
NORTHEAST WISCONSIN

CITY           SKY/WX    TMP DP  RH WIND       PRES   REMARKS
IRON MOUNTAIN  CLEAR     58  48  69 S3        29.98S
MARINETTE      CLEAR     54  48  82 CALM      29.98F
OCONTO         CLEAR     50  50 100 CALM      29.99S
$$

WIZ017-030-035>037-045-030600-
CENTRAL WISCONSIN

CITY           SKY/WX    TMP DP  RH WIND       PRES   REMARKS
MEDFORD        CLEAR     56  51  84 S3        30.01S
WAUSAU         CLEAR     60  52  74 CALM      30.00S
MOSINEE        CLEAR     54  52  94 S5        30.02S
MARSHFIELD     CLEAR     59  50  72 CALM      30.01S
WISC RAPIDS    CLEAR     55  50  83 SE3       30.02S
STEVENS POINT  CLEAR     51  49  93 CALM      30.02S
WAUPACA        CLEAR     55  54  95 CALM      30.01F
SHAWANO        CLEAR     60  51  74 CALM      30.01S
CLINTONVILLE   CLEAR     54  48  82 CALM      30.01S
$$

WIZ038-039-048-051-030600-
FOX VALLEY

CITY           SKY/WX    TMP DP  RH WIND       PRES   REMARKS
NWS GREEN BAY  CLEAR     55  52  89 S3        30.01S
APPLETON       CLEAR     61  46  59 S3        30.02S
OSHKOSH        CLEAR     55  49  80 S6        30.01S
FOND DU LAC    CLEAR     55  49  80 S3        30.02S
$$

WIZ022-050-052-030600-
EAST CENTRAL WISCONSIN

CITY           SKY/WX    TMP DP  RH WIND       PRES   REMARKS
STURGEON BAY   CLEAR     52  45  76 S3        30.02S
MANITOWOC      CLEAR     52  49  89 MISG      30.02S
SHEBOYGAN      CLEAR     51  47  86 CALM      30.02F
$$

LMZ563-521-522-541>543-030600-
LAKESHORE

STATION/POSITION TIME  TEMP    WIND        PRES    VSBY  WAVE
                       AIR SEA DIR/SP/G                  HT/PER
                 (UTC) (F)     (DEG/KT/KT) (MB)    (MI)  (FT/S)
SHEBOYGAN LKSHOR 0500   59     300/  2/  2 1016.8F
KEWAUNEE LKSHORE 0400   54      CALM  /  2 1015.4F
ALGOMA MARINA    0410             CALM       N/A
NORTHPORT PIER   0400   57     200/  2/  5 1015.6F
N MID LAKE BUOY  0450   53 49  190/  6/  6 1015.6F         0
CHAMBERS ISLAND  0400   57     160/  2/  2 1015.6F
MENOMINEE LKSHOR 0400   66     190/  4/  5 1016.1F
$$


USA.gov is the U.S. government's official web portal to all federal, state and local government web resources and services.